Poplar Bluff, MO

4:12 PM CDT on July 26, 2017 (GMT -0500)
Poplar Bluff Municipal

Weather History for KPOF - December, 2013

Change the Weather History Date:

Monday, December 23, 2013

  Actual Average Record
Temperature  
Mean Temperature 34 °F -  
Max Temperature 39 °F 42 °F 68 °F (1931)
Min Temperature 25 °F 24 °F -9 °F (1989)
Degree Days  
Heating Degree Days 32    
Moisture  
Dew Point 19 °F    
Average Humidity 59    
Maximum Humidity 67    
Minimum Humidity 43    
Precipitation  
Precipitation 0.00 in - - ()
Sea Level Pressure  
Sea Level Pressure 30.45 in    
Wind  
Wind Speed 10 mph (NW)    
Max Wind Speed 14 mph    
Max Gust Speed -    
Visibility 10 miles    
Events      
Averages and records for this station are not official NWS values.
T = Trace of Precipitation, MM = Missing Value Source: NWS Daily Summary

Daily Weather History Graph

Daily Weather History Graph

Search for Another Location

Airport or City:

Trip Planner

Search our weather history database for the weather conditions in past years. The results will help you decide how hot, cold, wet, or windy it might be!

Date:

Astronomy

Dec. 23, 2013 Rise Set
Actual Time 7:11 AM CST 4:49 PM CST
Civil Twilight 6:42 AM CST 5:18 PM CST
Nautical Twilight 6:09 AM CST 5:51 PM CST
Astronomical Twilight 5:38 AM CST 6:22 PM CST
Moon 10:51 PM CST (12/23) 10:44 AM CST (12/23)
Length of Visible Light 10h 36m
Length of Day
9h 38m
Waning Gibbous, 68% of the Moon is Illuminated
Dec 23
Waning Gibbous
Dec 25
Last Quarter
Jan 1
New
Jan 7
First Quarter
Jan 15
Full

Hourly Weather History & Observations

Time (CST) Temp. Windchill Dew Point Humidity Pressure Visibility Wind Dir Wind Speed Gust Speed Precip Events Conditions
12:22 AM 34.0 °F 24.6 °F 24.1 °F 67% 30.27 in 10.0 mi NW 13.8 mph - N/A   Overcast
12:53 AM 34.0 °F 26.6 °F 24.1 °F 67% 30.29 in 10.0 mi NNW 9.2 mph - N/A   Overcast
1:53 AM 33.1 °F 25.5 °F 23.0 °F 66% 30.33 in 10.0 mi NNW 9.2 mph - N/A   Overcast
2:39 AM 33.1 °F 24.9 °F 23.0 °F 66% 30.34 in 10.0 mi NW 10.4 mph - N/A   Overcast
2:53 AM 33.1 °F 25.5 °F 23.0 °F 66% 30.36 in 10.0 mi NW 9.2 mph - N/A   Overcast
3:53 AM 32.0 °F 24.2 °F 21.0 °F 64% 30.38 in 10.0 mi NNW 9.2 mph - N/A   Overcast
4:14 AM 30.9 °F 22.8 °F 19.9 °F 64% 30.36 in 10.0 mi NNW 9.2 mph - N/A   Scattered Clouds
4:32 AM 30.9 °F 25.2 °F 21.0 °F 67% 30.36 in 10.0 mi North 5.8 mph - N/A   Mostly Cloudy
4:53 AM 30.9 °F 23.5 °F 19.9 °F 64% 30.38 in 10.0 mi NNW 8.1 mph - N/A   Overcast
5:53 AM 30.9 °F 21.7 °F 19.0 °F 61% 30.40 in 10.0 mi NW 11.5 mph - N/A   Overcast
6:53 AM 28.9 °F 18.2 °F 18.0 °F 64% 30.44 in 10.0 mi NW 13.8 mph - N/A   Mostly Cloudy
7:09 AM 28.9 °F 20.4 °F 18.0 °F 64% 30.42 in 10.0 mi NW 9.2 mph - N/A   Scattered Clouds
7:46 AM 28.9 °F 20.4 °F 18.0 °F 64% 30.44 in 10.0 mi NW 9.2 mph - N/A   Mostly Cloudy
7:53 AM 28.9 °F 20.4 °F 19.0 °F 67% 30.46 in 10.0 mi North 9.2 mph - N/A   Mostly Cloudy
8:11 AM 28.0 °F 19.3 °F 18.0 °F 66% 30.45 in 10.0 mi NNW 9.2 mph - N/A   Scattered Clouds
8:53 AM 28.9 °F 20.4 °F 17.1 °F 61% 30.49 in 10.0 mi NNW 9.2 mph - N/A   Clear
9:53 AM 30.0 °F 20.5 °F 18.0 °F 61% 30.53 in 10.0 mi NW 11.5 mph - N/A   Clear
10:53 AM 32.0 °F 23.0 °F 18.0 °F 56% 30.53 in 10.0 mi NW 11.5 mph - N/A   Clear
11:53 AM 34.0 °F 31.0 °F 17.1 °F 50% 30.51 in 10.0 mi Variable 3.5 mph - N/A   Clear
12:53 PM 36.0 °F 30.3 °F 17.1 °F 46% 30.48 in 10.0 mi NNW 6.9 mph - N/A   Clear
1:53 PM 37.9 °F 34.4 °F 18.0 °F 45% 30.47 in 10.0 mi West 4.6 mph - N/A   Clear
2:53 PM 39.0 °F 35.7 °F 18.0 °F 43% 30.47 in 10.0 mi NW 4.6 mph - N/A   Clear
3:53 PM 37.0 °F 31.0 °F 18.0 °F 46% 30.48 in 10.0 mi WNW 8.1 mph - N/A   Clear
4:53 PM 35.1 °F 27.9 °F 18.0 °F 50% 30.49 in 10.0 mi NW 9.2 mph - N/A   Mostly Cloudy
5:53 PM 34.0 °F 28.0 °F 17.1 °F 50% 30.50 in 10.0 mi NW 6.9 mph - N/A   Mostly Cloudy
6:53 PM 34.0 °F 25.5 °F 17.1 °F 50% 30.51 in 10.0 mi NW 11.5 mph - N/A   Mostly Cloudy
7:53 PM 32.0 °F 24.2 °F 16.0 °F 52% 30.53 in 10.0 mi NW 9.2 mph - N/A   Overcast
8:53 PM 30.9 °F 22.8 °F 15.1 °F 52% 30.55 in 10.0 mi NW 9.2 mph - N/A   Mostly Cloudy
9:53 PM 28.9 °F 20.4 °F 15.1 °F 56% 30.55 in 10.0 mi NW 9.2 mph - N/A   Partly Cloudy
10:53 PM 28.0 °F 18.1 °F 15.1 °F 58% 30.56 in 10.0 mi NNW 11.5 mph - N/A   Clear
11:53 PM 25.0 °F 14.2 °F 14.0 °F 63% 30.57 in 10.0 mi NW 11.5 mph - N/A   Clear